GEFSCGP_850_meantemp_066.txt.gz
Temperature
6 7 8 10 11 12 13 13 13 13 13 14 14 15 16 15 15 16 17 17 17 17 16 16 16 16 16 16 16 16 16 16 15 15 15 15 15 15 15 15 15 15 14 14
6 6 9 10 11 11 12 12 13 12 12 14 14 15 16 16 15 16 16 17 17 17 16 16 16 16 16 17 16 16 16 16 16 16 15 15 15 15 15 15 15 15 15 15
6 7 9 9 10 10 11 12 13 12 12 13 13 14 15 16 15 15 15 15 16 16 16 16 16 16 16 16 16 16 16 16 16 16 16 15 15 15 15 15 15 15 15 14
7 8 9 9 10 11 11 13 13 12 13 13 13 14 16 16 15 16 15 15 16 16 15 15 15 16 16 16 16 16 16 16 16 16 16 15 15 15 15 15 15 15 14 14
7 8 9 9 10 11 11 12 12 13 13 13 13 14 16 15 15 16 16 16 15 15 15 15 15 16 16 16 16 16 16 16 16 16 15 15 15 15 15 14 14 14 14 14
7 8 9 9 10 10 10 11 12 12 13 12 13 13 15 15 16 16 17 16 15 15 14 14 15 15 15 15 15 15 15 15 15 15 15 15 14 14 14 14 14 13 13 13
7 8 8 9 9 10 11 11 10 10 11 12 12 13 14 16 15 15 16 15 15 14 14 14 14 15 15 15 15 15 14 14 14 14 14 14 14 13 13 13 13 12 12 12
7 7 8 9 10 10 11 12 11 11 11 12 11 12 15 15 14 12 12 12 12 12 13 13 13 14 14 14 14 14 14 13 13 13 13 13 13 12 12 12 12 11 11 11
8 7 7 8 9 11 10 11 11 12 11 12 12 12 14 14 14 13 13 12 12 11 11 11 12 12 12 13 13 13 12 12 12 12 12 12 12 11 11 11 11 10 10 10
9 7 8 8 9 9 11 11 11 11 10 12 12 13 14 15 15 14 14 13 12 10 10 10 10 10 11 11 11 11 11 11 11 11 11 11 11 10 10 10 9 9 9 8
9 9 8 8 9 10 10 10 11 11 12 12 12 14 14 14 14 13 13 12 11 10 9 9 9 9 10 10 10 10 10 10 10 10 10 10 9 9 9 8 8 8 8 7
9 9 8 8 8 9 10 11 11 11 10 11 12 14 14 13 13 12 12 11 10 10 9 8 8 9 9 10 10 10 10 10 9 9 9 9 8 8 8 7 7 7 7 6
9 9 8 8 8 8 9 10 11 11 10 10 11 13 13 12 12 11 11 11 10 9 9 8 8 9 9 10 10 10 9 9 9 8 8 8 7 7 7 6 6 6 6 6
9 9 9 10 10 9 8 9 9 9 9 10 11 13 13 13 13 13 12 11 10 9 9 8 8 9 9 10 9 9 9 9 8 8 7 7 6 6 6 5 5 5 5 5
9 8 8 8 8 8 8 9 9 9 10 10 12 12 13 13 13 13 12 11 10 9 9 9 9 9 10 10 9 9 9 8 8 7 7 6 6 5 5 4 4 4 4 4
8 8 7 7 7 8 8 8 9 9 9 10 10 11 12 12 11 11 11 10 10 9 9 9 9 10 10 10 10 9 9 8 7 7 6 5 5 4 4 3 3 3 2 2
8 7 7 8 7 7 8 9 9 9 9 10 10 11 12 11 11 10 10 10 9 10 10 10 10 10 10 10 10 9 8 7 7 6 5 5 4 3 3 2 2 1 1 1
8 8 8 8 7 7 10 8 8 9 9 9 9 10 10 10 9 9 9 9 9 9 9 10 10 10 10 10 9 9 8 7 6 5 5 4 3 2 2 1 1 1 0 0
8 8 8 7 8 8 9 8 8 8 9 9 9 9 9 8 8 9 8 8 8 9 9 10 10 10 10 10 9 8 7 7 6 5 4 4 3 2 1 1 0 0 0 0
7 8 7 7 7 8 9 8 7 8 9 9 8 8 8 7 9 10 8 8 8 9 9 9 10 10 10 9 9 8 7 6 6 5 4 3 2 1 1 0 0 0 -0 -0
6 6 6 7 7 8 9 7 7 8 9 8 7 7 7 7 8 7 7 8 8 8 9 9 9 9 9 9 8 7 6 6 5 4 3 3 2 1 1 0 0 0 -0 -0
7 7 7 7 7 8 8 7 8 8 7 6 6 6 6 6 6 7 7 7 8 8 8 8 8 8 8 8 7 6 6 5 4 4 3 3 2 1 1 0 0 -0 -0 -0
6 7 8 8 8 7 6 6 6 5 6 6 6 6 6 6 6 6 7 7 7 7 7 7 7 7 7 7 6 6 5 4 4 3 3 2 2 1 1 0 0 -0 -0 -0
5 4 5 6 7 6 5 5 5 5 5 5 5 6 6 6 6 6 7 7 7 7 7 7 6 6 6 6 5 5 4 4 3 3 3 2 2 1 1 1 0 0 0 0
4 4 4 5 5 5 5 4 4 4 4 5 5 5 5 5 6 6 6 6 6 6 6 6 6 5 5 5 5 4 4 3 3 3 2 2 2 1 1 1 1 1 1 0
3 3 3 4 3 3 4 3 3 3 4 4 4 5 5 5 5 5 5 5 5 5 5 5 5 5 5 4 4 4 3 3 3 3 2 2 2 2 1 1 1 1 1 0

GEFSCGP_850_meantemp_072.txt.gz
Temperature
6 6 6 7 9 10 11 11 12 12 13 13 13 14 15 16 16 17 17 18 18 18 18 17 17 17 17 16 16 16 16 15 15 15 15 15 15 15 15 14 14 14 14 14
6 6 7 8 9 10 11 11 12 13 13 13 13 14 15 16 16 17 17 18 18 18 18 17 17 17 17 16 16 16 16 16 15 15 15 15 15 15 15 15 14 14 14 14
6 7 8 8 9 10 10 11 12 12 12 13 13 13 14 15 17 17 17 17 18 18 18 17 17 17 17 16 16 16 16 16 16 15 15 15 15 15 15 15 15 15 15 15
7 7 8 8 9 10 11 12 12 12 11 11 13 12 14 15 15 16 17 17 18 18 18 17 17 17 17 16 16 16 16 16 16 15 15 15 15 15 15 15 15 15 15 15
7 8 8 9 10 11 11 13 12 12 12 12 13 13 14 15 15 16 16 17 18 18 18 17 17 17 16 16 16 16 16 16 16 15 15 15 15 15 15 14 14 14 14 14
8 8 8 9 11 11 11 12 12 12 11 11 13 13 14 15 16 16 16 18 18 17 17 17 17 16 16 16 16 16 16 16 16 16 15 15 15 15 14 14 14 14 14 14
7 8 8 9 10 11 11 10 9 9 9 10 13 13 14 16 16 16 16 17 17 17 17 16 16 16 15 15 15 15 15 15 15 15 15 15 15 14 14 14 14 13 13 13
7 7 8 9 10 10 10 10 10 10 9 11 13 13 14 16 15 15 15 16 16 16 16 15 15 15 15 15 15 15 15 14 14 14 14 14 14 14 14 13 13 13 13 12
8 8 9 10 10 11 11 10 11 11 12 11 11 14 15 15 15 15 15 15 15 15 15 15 14 14 14 14 14 14 13 13 14 14 14 13 13 13 13 13 12 12 12 12
9 8 9 10 10 11 11 11 11 10 10 11 12 13 13 13 14 14 14 14 14 14 14 14 13 13 13 13 12 12 12 12 12 12 13 13 13 13 12 12 12 11 11 11
10 8 8 9 9 10 11 11 11 11 11 10 11 12 14 13 14 13 13 14 14 13 13 13 12 12 12 11 11 11 11 11 11 12 12 12 12 12 11 11 11 10 10 10
10 9 8 9 10 10 10 11 11 10 10 11 10 12 14 13 13 13 13 13 13 13 12 12 12 11 10 10 10 9 10 10 10 11 11 11 11 11 10 10 10 9 9 9
10 9 7 8 8 9 10 11 12 11 10 9 10 11 14 13 13 14 13 13 13 12 12 11 11 10 10 9 8 8 9 9 10 10 10 10 10 10 10 9 9 8 8 8
10 9 9 8 9 9 9 10 11 10 8 9 10 12 13 13 13 13 13 13 13 12 12 11 11 10 9 8 8 8 8 9 9 10 10 9 9 9 9 8 8 8 7 7
10 9 9 9 10 10 10 10 10 9 9 9 11 11 12 13 12 13 13 13 12 12 11 11 10 10 9 8 8 8 8 9 9 9 9 9 9 8 8 8 7 7 6 5
9 8 7 8 9 9 9 9 10 10 10 10 10 10 12 12 13 12 12 12 12 11 11 11 10 10 9 9 8 8 9 9 9 9 9 9 8 8 7 7 6 6 5 4
9 8 7 8 9 9 7 9 9 10 10 10 9 10 11 11 11 11 11 10 10 10 10 10 10 10 9 9 9 9 9 9 9 9 8 8 8 7 7 6 5 4 4 3
9 8 7 7 8 6 9 10 10 10 10 10 10 10 10 10 10 10 10 9 9 9 9 10 10 10 9 9 9 9 9 9 9 8 8 8 7 7 6 5 4 3 3 2
9 8 7 7 7 8 9 9 9 9 9 10 10 10 10 9 9 9 8 8 8 8 8 9 9 9 9 9 9 9 9 9 8 8 8 7 7 6 5 5 4 2 2 1
9 8 7 7 7 8 8 9 9 9 8 8 9 8 9 9 7 7 7 7 7 7 8 8 8 9 8 8 8 8 8 8 8 8 7 7 6 5 5 4 3 2 1 1
7 7 6 6 7 8 8 8 9 7 6 8 8 7 7 7 6 7 7 6 7 7 7 7 8 8 8 8 8 8 8 8 7 7 6 6 5 5 4 3 3 2 1 0
6 6 6 6 6 6 7 8 7 6 7 7 6 6 6 6 6 6 6 6 6 6 6 7 7 7 7 7 7 7 7 6 6 6 5 5 4 4 3 3 2 1 1 0
7 6 6 6 6 6 6 6 5 5 5 5 5 5 5 5 5 5 5 5 6 6 6 6 6 6 6 6 6 6 6 6 5 5 5 4 4 3 3 3 2 1 1 1
5 5 6 6 6 6 5 5 4 4 4 4 4 4 4 4 4 5 5 5 5 5 5 6 6 6 6 6 6 5 5 5 5 4 4 4 3 3 3 2 2 1 1 1
4 4 4 5 5 5 4 3 3 3 3 3 3 3 3 3 4 4 4 4 4 5 5 5 5 5 5 5 5 5 5 4 4 4 3 3 3 2 2 2 2 2 1 1
3 3 3 3 3 3 3 2 2 2 2 2 2 2 2 3 3 3 3 3 4 4 4 4 4 4 4 4 4 4 4 4 3 3 3 3 2 2 2 2 1 1 1 1

GEFSCGP_850_meantemp_078.txt.gz
Temperature
5 5 4 5 6 7 7 8 8 9 10 10 10 10 10 11 11 11 12 13 14 15 16 16 16 16 16 16 16 16 16 16 15 15 15 15 15 15 14 14 14 14 14 14
4 4 5 6 7 7 7 8 8 9 10 10 9 10 10 11 11 11 12 13 14 14 15 16 16 16 16 16 16 16 16 16 16 16 15 15 15 15 15 14 14 14 14 14
5 5 6 7 7 7 7 8 8 9 9 10 10 10 10 11 11 12 12 13 14 15 15 16 16 16 16 17 16 16 16 16 16 15 15 15 15 14 14 14 14 14 14 14
5 6 7 7 7 7 8 8 9 9 9 9 9 9 10 11 11 12 12 13 14 15 16 16 16 16 17 17 17 17 16 16 16 16 15 15 15 15 15 15 15 14 14 14
5 6 6 7 8 8 8 9 9 9 9 8 9 9 9 10 11 12 12 14 15 16 16 16 17 17 17 17 17 16 16 16 16 16 15 15 15 15 15 15 15 14 14 14
6 7 7 7 8 8 8 9 9 8 8 8 9 9 9 10 11 12 13 14 15 16 16 16 17 17 16 16 16 16 16 16 16 15 15 15 15 15 15 15 14 14 14 14
6 7 7 7 8 8 8 8 7 8 8 8 9 9 10 11 12 12 13 14 15 15 16 16 16 16 16 16 16 16 16 15 15 15 15 15 15 15 15 15 14 14 14 14
5 6 7 7 8 8 8 8 7 8 8 8 9 9 10 11 12 13 13 14 14 15 15 16 16 16 16 16 16 15 15 15 15 15 15 15 14 14 14 14 14 14 14 13
6 6 7 8 8 8 8 7 8 7 8 8 9 10 11 12 11 11 12 13 14 14 15 15 15 15 15 15 15 15 15 15 14 14 14 14 14 14 14 14 13 13 13 13
7 6 7 8 8 9 9 8 7 7 8 8 9 10 10 11 11 10 10 12 13 14 14 14 14 14 14 14 14 14 14 14 14 13 13 13 13 13 13 13 13 12 12 12
7 6 7 7 7 8 8 9 8 7 7 7 8 9 10 10 10 10 10 12 13 13 13 13 14 14 14 13 13 13 13 13 13 12 12 12 12 12 12 12 12 12 11 11
7 6 6 7 8 8 8 9 8 8 7 7 7 8 10 9 9 9 10 12 12 12 13 13 13 13 13 13 12 12 12 12 12 11 11 11 11 11 11 11 11 11 11 10
7 6 6 6 7 8 8 9 8 7 7 6 7 9 10 9 9 10 11 11 12 12 12 12 12 12 12 12 12 11 11 11 10 10 10 10 10 10 10 10 10 10 10 9
8 6 6 6 7 7 7 8 8 7 6 7 7 8 9 9 9 10 10 11 11 11 11 11 11 11 11 11 11 11 10 10 9 9 9 9 9 9 9 9 9 9 9 9
7 6 7 7 7 7 8 8 8 7 7 7 8 8 9 9 9 9 10 10 10 10 10 10 10 10 10 10 10 10 10 9 9 8 8 8 9 9 9 9 8 8 8 8
6 6 6 6 7 7 7 7 8 8 8 7 8 8 8 9 9 9 9 9 9 9 9 10 10 10 10 10 10 9 9 9 8 8 8 8 8 8 8 8 8 7 7 7
5 5 5 5 7 7 6 7 7 7 7 7 7 8 8 8 8 8 8 8 8 8 8 9 9 9 9 9 9 9 9 8 8 8 8 8 8 8 7 7 7 7 6 6
5 5 4 5 6 5 6 7 7 7 6 6 7 7 7 7 7 7 7 7 7 7 8 8 8 9 9 9 9 9 8 8 8 8 7 7 7 7 7 7 6 6 5 5
5 5 4 4 5 5 6 7 7 7 6 5 6 6 6 7 6 6 6 6 6 7 7 7 8 8 8 8 8 8 8 8 8 7 7 7 7 7 6 6 5 5 5 4
5 5 4 4 5 5 6 7 7 7 5 5 5 4 5 6 5 5 6 6 6 6 6 7 7 7 8 8 8 8 8 7 7 7 7 7 6 6 6 5 5 4 4 3
5 4 4 4 4 5 5 6 7 6 5 4 4 4 4 4 4 5 5 5 6 6 6 6 6 7 7 7 7 7 7 7 7 6 6 6 5 5 5 4 4 3 3 2
3 3 3 3 4 4 5 5 5 4 4 4 4 4 4 4 4 4 5 5 5 5 5 5 5 6 6 6 6 6 6 6 6 6 5 5 5 4 4 3 3 3 2 2
3 3 3 3 4 4 4 4 4 4 3 3 3 3 3 3 3 4 4 4 4 4 4 5 5 5 5 5 5 5 5 5 5 5 5 4 4 4 3 3 3 2 2 2
3 3 3 3 3 3 3 3 3 3 3 3 3 3 2 2 3 3 3 3 3 3 4 4 4 4 4 4 4 4 4 4 4 4 4 4 3 3 3 2 2 2 2 1
2 2 2 2 2 2 2 2 2 2 2 2 2 2 2 2 2 2 2 2 3 3 3 3 3 3 3 4 4 4 3 3 4 3 3 3 3 3 2 2 2 2 1 1
1 1 1 2 2 2 2 2 2 2 1 1 1 1 1 1 1 1 1 1 2 2 2 2 2 2 3 3 3 3 3 3 3 3 3 2 2 2 2 2 1 1 1 1

GEFSCGP_850_meantemp_084.txt.gz
Temperature
4 4 3 4 4 5 5 6 6 7 8 8 8 8 9 9 10 10 10 11 12 13 14 14 14 14 14 14 15 15 15 15 15 15 15 15 15 15 15 15 15 15 14 14
3 4 4 5 5 5 6 6 7 7 8 8 8 8 9 9 9 10 10 11 12 13 13 14 14 14 14 14 14 14 15 15 15 15 15 15 15 15 15 15 15 15 14 14
4 4 5 5 5 6 6 6 7 7 8 8 8 8 9 9 9 10 11 11 12 13 13 14 14 14 14 14 14 14 14 14 14 14 14 15 14 14 14 14 14 14 14 14
4 5 5 6 6 6 6 7 8 8 7 7 8 8 9 9 9 10 10 11 12 13 14 15 15 15 15 15 15 14 14 14 14 14 14 14 14 14 15 15 15 15 14 14
5 5 5 6 6 6 6 7 7 8 7 7 7 7 8 9 9 10 10 11 13 14 14 15 15 15 15 15 15 15 15 15 14 14 14 14 14 14 14 14 14 14 14 14
5 6 6 6 7 7 7 7 7 7 7 7 8 8 8 8 9 10 10 11 13 14 14 15 15 15 15 15 15 15 15 15 15 14 14 14 14 14 14 14 14 14 14 14
5 6 6 6 7 7 7 7 7 7 7 7 8 8 8 9 9 10 10 12 13 14 14 15 15 15 15 15 15 15 15 15 15 15 14 14 14 14 14 14 14 14 14 13
4 5 6 6 7 7 7 7 7 7 7 7 8 8 8 9 9 10 10 11 13 14 14 15 15 15 15 15 15 15 15 15 15 15 14 14 14 14 14 14 14 14 13 13
5 5 6 7 7 7 7 6 7 6 7 7 8 8 8 9 9 8 9 10 11 13 13 14 14 14 15 15 15 15 15 15 15 15 14 14 14 14 13 13 13 13 13 13
6 6 6 7 7 7 7 7 6 7 7 7 8 8 8 9 8 8 8 9 10 12 13 13 14 14 14 14 14 14 14 14 14 14 14 13 13 13 13 13 13 13 12 12
6 6 6 6 6 7 7 7 6 6 6 7 8 8 8 7 8 8 8 9 10 11 12 12 13 13 13 13 13 13 13 13 13 13 13 13 13 13 12 12 12 12 12 11
6 5 5 6 6 7 7 7 7 7 6 5 6 8 8 6 6 7 8 9 10 10 11 12 12 12 12 12 13 13 13 12 12 12 12 12 12 12 11 11 11 11 11 11
6 5 5 6 6 6 7 7 6 6 5 5 6 8 8 6 6 7 8 9 10 10 11 11 11 11 12 12 12 12 12 11 11 11 11 11 11 11 10 10 10 10 10 10
6 5 5 6 6 6 6 7 7 6 5 6 6 7 7 7 7 7 8 9 9 10 10 10 11 11 11 11 11 11 11 11 10 10 10 10 10 9 9 9 9 9 9 9
6 5 5 5 6 6 6 7 6 6 6 6 7 7 7 7 7 7 8 8 9 9 9 9 10 10 10 10 10 10 10 10 10 9 9 9 9 8 8 8 8 8 8 8
5 5 5 5 6 6 6 6 6 6 6 6 6 6 6 7 7 7 7 7 7 8 8 8 9 9 9 9 9 9 9 9 9 9 9 8 8 8 8 8 7 8 8 8
4 5 5 5 5 6 6 6 6 6 5 6 6 6 6 6 6 6 6 6 6 7 7 7 8 8 8 8 8 8 9 8 8 8 8 8 7 7 7 7 7 7 7 7
4 4 3 4 5 5 6 5 5 5 5 5 5 5 5 5 5 5 5 6 6 6 6 7 7 7 7 7 8 8 8 8 8 8 7 7 7 7 6 6 6 6 6 6
4 4 4 4 4 4 5 5 5 5 5 4 4 4 4 5 5 5 5 5 5 5 6 6 6 6 7 7 7 7 7 7 7 7 7 7 7 6 6 6 6 6 6 5
3 3 3 4 5 5 5 5 5 5 5 4 4 3 3 4 3 4 4 5 5 5 5 5 5 6 6 6 6 6 7 7 7 7 6 6 6 6 6 5 5 5 5 5
4 4 4 4 4 4 4 5 5 5 5 4 4 3 3 3 3 4 4 4 4 4 4 5 5 5 5 5 5 6 6 6 6 6 6 5 5 5 5 5 5 4 4 4
3 3 3 3 4 4 4 4 4 4 3 3 3 3 3 3 3 3 3 4 4 4 4 4 4 4 4 4 4 5 5 5 5 5 5 5 5 4 4 4 4 4 3 3
2 2 2 3 4 3 3 4 4 4 4 3 3 3 3 3 3 3 3 3 3 3 3 3 3 3 3 3 3 3 4 4 4 4 4 4 4 4 4 4 3 3 3 3
1 1 1 2 2 2 3 3 4 4 3 3 3 3 2 2 2 2 2 2 2 2 2 2 2 2 3 3 3 3 3 3 3 3 3 3 3 3 3 3 3 2 2 2
1 0 1 1 2 2 2 3 3 3 3 2 2 2 2 1 1 1 1 1 1 1 1 1 1 1 1 2 2 2 2 2 2 2 2 2 2 2 2 2 2 2 2 2
-0 0 1 2 2 1 2 3 3 2 2 2 2 1 1 1 0 0 0 0 0 0 0 0 0 0 0 1 1 1 1 1 1 1 1 1 1 1 1 1 1 1 1 1

GEFSCGP_850_meantemp_090.txt.gz
Temperature
6 6 6 7 7 7 7 7 8 9 9 9 9 10 10 11 11 11 11 11 11 11 12 12 12 12 12 12 13 13 13 13 13 13 14 14 14 14 14 14 14 15 14 14
6 6 7 7 7 6 7 7 8 9 10 10 10 10 11 11 11 11 11 11 11 11 12 12 12 12 12 12 12 12 13 13 13 13 14 14 14 14 14 14 14 14 14 14
6 7 7 7 7 7 7 8 8 9 9 10 10 10 11 11 11 11 11 11 11 12 12 11 12 12 12 12 12 12 12 13 13 13 13 13 13 13 13 13 14 14 14 14
6 7 6 7 7 7 7 8 8 8 9 9 10 10 11 12 12 12 11 11 11 11 12 12 12 12 12 12 12 12 12 13 13 13 13 13 13 13 13 13 13 13 13 13
7 7 7 7 7 7 8 9 8 9 9 9 10 10 11 11 11 12 12 12 12 11 12 12 12 12 12 12 12 12 12 13 13 13 12 12 13 13 13 13 13 13 13 13
7 7 7 7 8 8 8 8 9 9 10 9 10 10 11 11 11 12 13 12 11 11 11 12 12 12 12 12 12 12 12 12 13 13 13 12 12 12 12 12 13 13 13 13
7 7 7 7 8 8 8 9 9 9 10 10 10 10 11 11 11 11 12 11 11 11 11 11 12 12 12 12 12 12 13 13 12 12 12 12 12 12 12 12 12 12 13 13
7 7 7 8 8 8 8 8 9 10 10 10 10 10 11 11 11 10 10 10 10 10 11 11 12 12 12 12 13 13 13 13 12 12 12 12 12 12 12 12 12 12 12 12
8 7 8 8 8 8 9 9 9 10 10 11 10 11 11 11 11 10 10 10 9 9 10 10 11 11 12 12 12 13 13 13 13 12 12 12 12 12 12 12 12 12 12 12
8 7 8 8 8 9 9 9 9 10 10 11 11 11 10 10 10 10 10 9 9 9 9 10 11 11 11 12 12 12 12 12 12 12 12 12 12 12 12 12 12 12 12 12
8 8 8 8 8 8 9 9 9 10 10 11 11 10 9 9 9 9 9 8 8 8 8 9 10 11 11 12 12 12 12 12 12 12 12 12 12 12 12 12 12 12 12 12
8 8 8 8 8 8 8 9 9 10 10 11 11 10 9 9 9 9 9 8 7 7 8 9 9 10 10 11 11 11 11 12 12 12 12 12 12 12 12 12 11 11 11 11
8 8 8 9 9 9 9 9 9 9 10 10 11 10 9 10 9 9 8 8 7 7 8 8 9 10 10 10 11 11 11 11 11 11 11 11 11 11 11 11 11 11 11 10
8 8 8 9 9 9 8 9 9 9 10 10 10 10 10 10 9 9 8 8 8 7 7 8 8 9 9 10 10 10 10 10 10 10 11 10 10 10 10 10 10 10 10 9
9 8 7 8 8 8 8 8 8 8 9 10 10 10 9 9 9 8 8 7 7 7 6 7 7 8 8 8 9 9 9 9 10 10 10 10 10 9 9 9 9 9 9 8
8 8 7 7 8 8 8 8 8 8 9 9 9 9 9 8 8 7 7 6 6 6 6 6 7 7 7 8 8 8 8 8 9 9 9 9 9 9 8 8 8 8 8 8
8 8 8 8 8 8 9 8 8 8 8 9 9 9 8 8 7 7 6 6 5 5 5 5 6 6 7 7 7 7 7 8 8 8 8 8 8 8 7 7 7 7 7 7
8 8 8 8 8 7 8 7 7 7 7 7 7 7 7 7 6 5 5 5 5 4 4 5 5 6 6 6 6 7 7 7 7 7 7 7 7 7 6 6 6 6 6 6
7 8 8 8 8 8 8 7 7 8 8 7 7 7 6 5 6 5 4 4 4 4 4 4 5 5 5 5 6 6 6 6 6 6 6 6 6 6 6 6 6 6 6 6
6 7 8 8 8 8 9 7 6 7 8 7 6 6 6 6 8 7 4 4 4 4 4 4 4 4 4 5 5 5 5 5 5 5 5 5 5 5 5 5 5 5 5 5
7 7 7 7 8 9 7 6 6 8 9 6 5 5 5 6 6 4 3 3 3 3 3 4 4 4 4 4 4 4 4 4 4 4 4 4 4 4 4 4 4 4 4 4
7 7 7 7 7 8 6 6 7 8 5 5 4 4 4 4 3 3 3 3 3 3 3 3 3 3 3 3 3 3 3 3 3 3 3 3 3 3 3 3 3 3 3 3
6 7 8 8 8 6 5 5 5 5 4 4 4 4 3 3 3 2 2 2 2 2 2 2 2 2 2 2 2 2 2 2 2 2 3 3 3 3 2 2 2 2 2 2
5 4 5 6 6 5 4 4 4 4 4 4 4 3 3 2 2 2 2 1 1 1 1 1 1 1 1 1 1 1 1 1 1 1 2 2 2 2 2 1 1 1 1 1
6 4 5 6 5 4 3 3 4 4 4 4 3 3 2 2 2 1 1 1 1 1 0 0 0 0 0 0 0 0 0 0 0 0 1 1 1 1 1 1 1 1 1 1
4 5 6 7 6 6 5 4 4 4 3 3 3 2 2 1 1 1 0 0 0 -0 -0 -0 -0 -0 -0 -0 -1 -1 -1 -1 -1 -1 -1 -1 -0 -0 -0 -0 -0 0 0 0